Retour au catalogue

STARLINK-35574

ActifCommunicationsVLEO
NORAD 66111·PAYLOAD·🇺🇸 United States

Lancé Oct 19, 2025 depuis Vandenberg Space Force Base

Loading…

Prochains Passages (prochaines 24 heures)

TLE

FraisSource: CelesTrak SupGP

Époque: Sep 14, 2026, 20:36 UTC

1 66111C 25236AB  26257.85881944 -.00007473  00000+0 -22086-3 0  2572
2 66111  53.1567 303.7592 0001158  94.6632  48.6875 15.34384139    18

Suivez STARLINK-35574 en temps réel avec AllMySat

Download on the App Store